Kingsville, TX

3:36 PM CDT on August 27, 2016 (GMT -0500)
Kingsville Naval Air Station

Weather History for KNQI - May, 2013

Change the Weather History Date:

Wednesday, May 22, 2013

  Actual Average Record
Temperature  
Mean Temperature 82 °F -  
Max Temperature 88 °F 87 °F 97 °F (2008)
Min Temperature 78 °F 69 °F 64 °F (2007)
Cooling Degree Days 18    
Growing Degree Days 32 (Base 50)    
Moisture  
Dew Point 75 °F    
Average Humidity 82    
Maximum Humidity 94    
Minimum Humidity 66    
Precipitation  
Precipitation 0.00 in - - ()
Sea Level Pressure  
Sea Level Pressure 29.82 in    
Wind  
Wind Speed 8 mph (SE)    
Max Wind Speed 13 mph    
Max Gust Speed -    
Visibility 6 miles    
Events      
Averages and records for this station are not official NWS values.
T = Trace of Precipitation, MM = Missing Value Source: NWS Daily Summary

Daily Weather History Graph

Daily Weather History Graph

Search for Another Location

Airport or City:

Trip Planner

Search our weather history database for the weather conditions in past years. The results will help you decide how hot, cold, wet, or windy it might be!

Date:

Astronomy

May. 22, 2013 Rise Set
Actual Time 6:38 AM CDT 8:17 PM CDT
Civil Twilight 6:13 AM CDT 8:42 PM CDT
Nautical Twilight 5:42 AM CDT 9:13 PM CDT
Astronomical Twilight 5:10 AM CDT 9:46 PM CDT
Moon 5:51 PM CDT (5/22) 4:29 AM CDT (5/22)
Length of Visible Light 14h 29m
Length of Day
13h 38m
Waxing Gibbous, 91% of the Moon is Illuminated
May 22
Waxing Gibbous
May 24
Full
May 31
Last Quarter
Jun 8
New
Jun 16
First Quarter

Hourly Weather History & Observations

Time (CDT) Temp. Heat Index Dew Point Humidity Pressure Visibility Wind Dir Wind Speed Gust Speed Precip Events Conditions
12:00 AM 78.8 °F - 75.2 °F 89% 29.76 in 8.0 mi SE 9.2 mph - N/A   Overcast
12:56 AM 79.0 °F - 75.9 °F 90% 29.77 in 8.0 mi ESE 8.1 mph - N/A   Overcast
1:38 AM 78.8 °F - 75.2 °F 89% 29.78 in 7.0 mi ESE 5.8 mph - N/A   Overcast
1:56 AM 78.1 °F - 75.9 °F 93% 29.77 in 7.0 mi ESE 4.6 mph - N/A   Overcast
2:03 AM 78.8 °F - 75.2 °F 89% 29.77 in 7.0 mi ESE 5.8 mph - N/A   Overcast
2:56 AM 79.0 °F - 75.9 °F 90% 29.77 in 7.0 mi ESE 8.1 mph - N/A   Overcast
3:56 AM 79.0 °F - 75.9 °F 90% 29.77 in 6.0 mi SE 8.1 mph - N/A   Mostly Cloudy
4:03 AM 78.8 °F - 75.2 °F 89% 29.77 in 6.0 mi SE 10.4 mph - N/A   Partly Cloudy
4:19 AM 78.8 °F - 75.2 °F 89% 29.78 in 6.0 mi SE 8.1 mph - N/A   Mostly Cloudy
4:56 AM 78.1 °F - 75.9 °F 93% 29.78 in 6.0 mi SE 6.9 mph - N/A   Overcast
5:56 AM 79.0 °F - 75.9 °F 90% 29.78 in 6.0 mi SE 9.2 mph - N/A   Overcast
6:56 AM 78.1 °F - 75.9 °F 93% 29.80 in 4.0 mi SE 3.5 mph - N/A   Overcast
7:09 AM 78.8 °F - 75.2 °F 89% 29.82 in 4.0 mi ESE 3.5 mph - N/A   Overcast
7:56 AM 79.0 °F - 77.0 °F 94% 29.83 in 4.0 mi ESE 3.5 mph - N/A   Overcast
8:03 AM 80.6 °F 87.1 °F 77.0 °F 89% 29.84 in 4.0 mi SE 3.5 mph - N/A   Overcast
8:40 AM 80.6 °F 87.1 °F 77.0 °F 89% 29.84 in 4.0 mi SE 6.9 mph - N/A   Overcast
8:56 AM 82.0 °F 90.2 °F 77.0 °F 85% 29.84 in 5.0 mi SE 10.4 mph - N/A   Haze
9:30 AM 82.4 °F 89.5 °F 75.2 °F 79% 29.85 in 6.0 mi SSE 10.4 mph - N/A   Haze
9:56 AM 82.9 °F 90.2 °F 75.0 °F 77% 29.85 in 6.0 mi SE 10.4 mph - N/A   Haze
10:56 AM 84.0 °F 91.9 °F 75.0 °F 74% 29.86 in 6.0 mi SE 9.2 mph - N/A   Haze
11:56 AM 80.1 °F 85.1 °F 75.0 °F 85% 29.86 in 7.0 mi SE 10.4 mph - N/A   Overcast
12:20 PM 84.2 °F 92.3 °F 75.2 °F 74% 29.87 in 2.0 mi East 10.4 mph - N/A   Haze
12:48 PM 86.0 °F 95.1 °F 75.2 °F 70% 29.87 in 2.0 mi ESE 10.4 mph - N/A   Haze
12:56 PM 86.0 °F 95.1 °F 75.0 °F 70% 29.86 in 2.0 mi SE 9.2 mph - N/A   Haze
1:13 PM 87.8 °F 97.6 °F 75.2 °F 66% 29.87 in 2.0 mi ESE 10.4 mph - N/A   Overcast
1:49 PM 87.8 °F 97.6 °F 75.2 °F 66% 29.86 in 3.0 mi East 9.2 mph - N/A   Overcast
1:56 PM 87.1 °F 96.3 °F 75.0 °F 67% 29.85 in 3.0 mi ESE 8.1 mph - N/A   Overcast
2:56 PM 86.0 °F 95.1 °F 75.0 °F 70% 29.84 in 7.0 mi SE 12.7 mph - N/A   Overcast
3:56 PM 86.0 °F 95.1 °F 75.0 °F 70% 29.82 in 7.0 mi SE 10.4 mph - N/A   Overcast
4:56 PM 86.0 °F 95.1 °F 75.0 °F 70% 29.80 in 6.0 mi ESE 11.5 mph - N/A   Haze
5:56 PM 86.0 °F 95.1 °F 75.0 °F 70% 29.79 in 7.0 mi ESE 9.2 mph - N/A   Mostly Cloudy
6:56 PM 84.9 °F 92.1 °F 73.9 °F 69% 29.79 in 7.0 mi ESE 9.2 mph - N/A   Partly Cloudy
7:56 PM 82.0 °F 87.9 °F 73.9 °F 76% 29.81 in 7.0 mi SE 10.4 mph - N/A   Mostly Cloudy
8:56 PM 80.1 °F 85.1 °F 75.0 °F 85% 29.83 in 7.0 mi ESE 11.5 mph - N/A   Mostly Cloudy
9:48 PM 78.8 °F - 75.2 °F 89% 29.86 in 6.0 mi SE 10.4 mph - N/A   Mostly Cloudy
9:56 PM 80.1 °F 85.1 °F 75.0 °F 85% 29.85 in 6.0 mi SE 10.4 mph - N/A   Haze
10:12 PM 78.8 °F - 75.2 °F 89% 29.86 in 10.0 mi ESE 8.1 mph - N/A   Mostly Cloudy
10:56 PM 79.0 °F - 75.0 °F 88% 29.87 in 10.0 mi SE 10.4 mph - N/A   Mostly Cloudy
11:56 PM 79.0 °F - 75.0 °F 88% 29.88 in 10.0 mi SE 10.4 mph - N/A   Mostly Cloudy